User: anonymous   Login
Location: Unspecified
(0.0000°N, 0.0000°E)
Time: 00:21:37
(UTC+02:00)
Language:

Iridium 39 - Orbit

View from above orbital plane
View from above orbital plane
View from above satellite
View from above satellite

Ground track
Ground track

The orbit data is extracted from the following two-line orbital elements,

1 25042U 97069D   15149.54901891  .00000046  00000-0  92371-5 0  9998
2 25042 086.3945 335.5227 0002100 094.2948 265.8487 14.34214188918864
Epoch (UTC): 29 May 2015 13:10:35
Eccentricity: 0.0002100
inclination: 86.3945°
perigee height: 776 km
apogee height: 779 km
right ascension of ascending node: 335.5227°
argument of perigee: 94.2948°
revolutions per day: 14.34214188
mean anomaly at epoch: 265.8487°
orbit number at epoch: 91886

The dashed part of the orbit path shows where the satellite is in the earth's shadow,  

DLR